When you browse on this site, cookies collect data to enhance your experience and personalize the content and advertising you see.
Visit our Privacy Policy to learn more. By continuing to use the site, you agree to this use of cookies and data.
EN

Hourly Weather Bijeljina

Today, 13 July, Monday

Time Temperature Precipitation Wind Pressure Humidity
00:00 +14°C° 0 mm 1 mps 759 mmHg 90%
01:00 +13°C° 0 mm 1 mps 759 mmHg 91%
02:00 +13°C° 0 mm 1 mps 759 mmHg 91%
03:00 +13°C° 0 mm 1 mps 758 mmHg 91%
04:00 +12°C° 0 mm 1 mps 758 mmHg 92%
05:00 +14°C° 0 mm 1 mps 758 mmHg 87%
06:00 +15°C° 0 mm 1 mps 758 mmHg 83%
07:00 +18°C° 0 mm 1 mps 759 mmHg 78%
08:00 +19°C° 0 mm 1 mps 758 mmHg 71%
09:00 +20°C° 0 mm 2 mps 758 mmHg 63%
10:00 +21°C° 0 mm 2 mps 758 mmHg 56%
11:00 +22°C° 0 mm 3 mps 757 mmHg 53%
12:00 +24°C° 0 mm 3 mps 757 mmHg 51%
13:00 +24°C° 0 mm 3 mps 757 mmHg 48%
14:00 +24°C° 0 mm 3 mps 756 mmHg 49%
15:00 +24°C° 0 mm 3 mps 756 mmHg 51%
16:00 +24°C° 0 mm 3 mps 755 mmHg 52%
17:00 +22°C° 0 mm 3 mps 755 mmHg 58%
18:00 +20°C° 0 mm 2 mps 755 mmHg 65%
19:00 +19°C° 0 mm 2 mps 756 mmHg 71%
20:00 +18°C° 0 mm 1 mps 756 mmHg 74%
21:00 +16°C° 0 mm 1 mps 756 mmHg 77%
22:00 +15°C° 0 mm 1 mps 756 mmHg 79%
23:00 +14°C° 0 mm 1 mps 756 mmHg 81%

Tomorrow, 14 July, Tuesday

Time Temperature Precipitation Wind Pressure Humidity
00:00 +14°C° 0 mm 1 mps 756 mmHg 82%
01:00 +13°C° 0 mm 1 mps 756 mmHg 83%
02:00 +13°C° 0 mm 1 mps 755 mmHg 84%
03:00 +12°C° 0 mm 1 mps 755 mmHg 85%
04:00 +11°C° 0 mm 0 mps 755 mmHg 86%
05:00 +13°C° 0 mm 0 mps 755 mmHg 81%
06:00 +15°C° 0 mm 0 mps 755 mmHg 75%
07:00 +16°C° 0 mm 0 mps 755 mmHg 70%
08:00 +20°C° 0 mm 1 mps 755 mmHg 66%
09:00 +21°C° 0 mm 1 mps 754 mmHg 61%
10:00 +21°C° 0 mm 2 mps 754 mmHg 57%
11:00 +23°C° 0 mm 2 mps 754 mmHg 55%
12:00 +24°C° 0 mm 2 mps 753 mmHg 53%
13:00 +25°C° 0 mm 2 mps 753 mmHg 51%
14:00 +25°C° 0 mm 2 mps 753 mmHg 51%
15:00 +25°C° 0 mm 2 mps 752 mmHg 52%
16:00 +25°C° 0 mm 2 mps 752 mmHg 53%
17:00 +23°C° 0 mm 1 mps 752 mmHg 58%
18:00 +22°C° 0 mm 1 mps 752 mmHg 64%
19:00 +20°C° 0 mm 1 mps 752 mmHg 70%
20:00 +19°C° 0 mm 1 mps 752 mmHg 72%
21:00 +18°C° 0 mm 1 mps 752 mmHg 75%
22:00 +16°C° 0 mm 1 mps 753 mmHg 78%
23:00 +15°C° 0 mm 1 mps 753 mmHg 80%

Day after tomorrow, 15 July, Wednesday

Time Temperature Precipitation Wind Pressure Humidity
00:00 +14°C° 0 mm 0 mps 753 mmHg 82%
01:00 +13°C° 0 mm 0 mps 753 mmHg 84%
02:00 +13°C° 0 mm 0 mps 753 mmHg 85%
03:00 +13°C° 0 mm 0 mps 752 mmHg 86%
04:00 +13°C° 0 mm 1 mps 752 mmHg 87%
05:00 +14°C° 0 mm 0 mps 752 mmHg 82%
06:00 +16°C° 0 mm 0 mps 752 mmHg 77%
07:00 +18°C° 0 mm 0 mps 753 mmHg 72%
08:00 +20°C° 0 mm 0 mps 752 mmHg 68%
09:00 +23°C° 0 mm 1 mps 752 mmHg 64%
10:00 +25°C° 0 mm 1 mps 752 mmHg 59%
11:00 +26°C° 0 mm 1 mps 752 mmHg 57%
12:00 +27°C° 0 mm 1 mps 752 mmHg 55%
13:00 +28°C° 0 mm 1 mps 752 mmHg 53%
14:00 +28°C° 0 mm 1 mps 751 mmHg 53%
15:00 +28°C° 0 mm 1 mps 751 mmHg 53%
16:00 +28°C° 0 mm 1 mps 751 mmHg 53%
17:00 +27°C° 0.1 mm 1 mps 751 mmHg 58%
18:00 +23°C° 0.1 mm 0 mps 751 mmHg 64%
19:00 +22°C° 0.1 mm 0 mps 751 mmHg 69%
20:00 +21°C° 0.1 mm 0 mps 751 mmHg 72%
21:00 +20°C° 0.1 mm 0 mps 752 mmHg 74%
22:00 +21°C° 0.1 mm 1 mps 752 mmHg 77%
23:00 +20°C° 0.3 mm 1 mps 752 mmHg 81%

16 July, Thursday

Time Temperature Precipitation Wind Pressure Humidity
00:00 +19°C° 0.3 mm 1 mps 752 mmHg 84%
01:00 +19°C° 0.3 mm 1 mps 752 mmHg 87%
02:00 +18°C° 0.1 mm 1 mps 752 mmHg 88%
03:00 +18°C° 0.1 mm 1 mps 752 mmHg 88%
04:00 +18°C° 0.1 mm 1 mps 752 mmHg 89%
05:00 +19°C° 0.1 mm 1 mps 752 mmHg 87%
06:00 +20°C° 0.1 mm 1 mps 752 mmHg 84%
07:00 +21°C° 0.1 mm 1 mps 752 mmHg 82%
08:00 +23°C° 0 mm 1 mps 752 mmHg 77%
09:00 +24°C° 0 mm 2 mps 752 mmHg 72%
10:00 +25°C° 0 mm 3 mps 752 mmHg 67%
11:00 +26°C° 0.1 mm 2 mps 752 mmHg 64%
12:00 +27°C° 0.1 mm 2 mps 751 mmHg 61%
13:00 +28°C° 0.1 mm 2 mps 751 mmHg 58%
14:00 +28°C° 0.1 mm 2 mps 751 mmHg 57%
15:00 +28°C° 0.1 mm 1 mps 751 mmHg 57%
16:00 +28°C° 0.1 mm 1 mps 750 mmHg 56%
17:00 +27°C° 0.3 mm 1 mps 750 mmHg 62%
18:00 +25°C° 0.3 mm 1 mps 750 mmHg 68%
19:00 +24°C° 0.3 mm 1 mps 751 mmHg 74%
20:00 +21°C° 1 mm 2 mps 751 mmHg 80%
21:00 +20°C° 1 mm 3 mps 751 mmHg 86%
22:00 +19°C° 1 mm 4 mps 751 mmHg 92%
23:00 +18°C° 0.3 mm 4 mps 752 mmHg 93%

17 July, Friday

Time Temperature Precipitation Wind Pressure Humidity
00:00 +18°C° 0.3 mm 4 mps 752 mmHg 94%
01:00 +17°C° 0.3 mm 3 mps 752 mmHg 95%
02:00 +16°C° 0.5 mm 3 mps 752 mmHg 96%
03:00 +16°C° 0.5 mm 3 mps 752 mmHg 96%
04:00 +14°C° 0.5 mm 3 mps 752 mmHg 97%
05:00 +16°C° 0.2 mm 3 mps 752 mmHg 96%
06:00 +16°C° 0.2 mm 3 mps 752 mmHg 96%
07:00 +16°C° 0.2 mm 2 mps 753 mmHg 96%
08:00 +16°C° 0 mm 2 mps 753 mmHg 94%
09:00 +17°C° 0 mm 2 mps 753 mmHg 91%
10:00 +17°C° 0 mm 2 mps 753 mmHg 89%
11:00 +18°C° 0 mm 2 mps 753 mmHg 85%
12:00 +19°C° 0 mm 2 mps 753 mmHg 82%
13:00 +20°C° 0 mm 2 mps 753 mmHg 78%
14:00 +19°C° 0.2 mm 2 mps 752 mmHg 80%
15:00 +19°C° 0.2 mm 2 mps 752 mmHg 83%
16:00 +19°C° 0.2 mm 2 mps 752 mmHg 86%
17:00 +18°C° 0.3 mm 2 mps 752 mmHg 88%
18:00 +17°C° 0.3 mm 2 mps 752 mmHg 90%
19:00 +18°C° 0.3 mm 1 mps 752 mmHg 92%
20:00 +16°C° 0 mm 1 mps 752 mmHg 92%
21:00 +16°C° 0 mm 1 mps 752 mmHg 91%
22:00 +16°C° 0 mm 1 mps 752 mmHg 91%
23:00 +16°C° 0 mm 1 mps 752 mmHg 91%

18 July, Saturday

Time Temperature Precipitation Wind Pressure Humidity
00:00 +16°C° 0 mm 1 mps 752 mmHg 91%
01:00 +16°C° 0 mm 1 mps 752 mmHg 91%
02:00 +16°C° 0.1 mm 1 mps 752 mmHg 92%
03:00 +16°C° 0.1 mm 1 mps 752 mmHg 92%
04:00 +16°C° 0.1 mm 1 mps 752 mmHg 93%
05:00 +16°C° 0.6 mm 1 mps 751 mmHg 94%
06:00 +16°C° 0.6 mm 1 mps 751 mmHg 95%
07:00 +16°C° 0.6 mm 1 mps 751 mmHg 96%
08:00 +16°C° 1.2 mm 1 mps 751 mmHg 97%
09:00 +16°C° 1.2 mm 1 mps 751 mmHg 97%
10:00 +16°C° 1.2 mm 1 mps 751 mmHg 98%
11:00 +18°C° 0.2 mm 1 mps 751 mmHg 96%
12:00 +18°C° 0.2 mm 1 mps 751 mmHg 95%
13:00 +19°C° 0.2 mm 1 mps 751 mmHg 93%
14:00 +19°C° 0.3 mm 1 mps 750 mmHg 92%
15:00 +20°C° 0.3 mm 1 mps 750 mmHg 92%
16:00 +20°C° 0.3 mm 1 mps 750 mmHg 91%
17:00 +20°C° 0.7 mm 1 mps 750 mmHg 92%
18:00 +19°C° 0.7 mm 1 mps 750 mmHg 94%
19:00 +19°C° 0.7 mm 1 mps 750 mmHg 96%
20:00 +19°C° 0.1 mm 1 mps 750 mmHg 97%
21:00 +19°C° 0.1 mm 1 mps 750 mmHg 97%
22:00 +19°C° 0.1 mm 1 mps 750 mmHg 98%
23:00 +19°C° 0.4 mm 1 mps 749 mmHg 98%
Show more